Location: Allie Creek
(37.5926°N, 89.8526°W)
Time: 01:38:05
(UTC+00:00)

USA 81 - Pass Details

Date: 27 April 2024
Orbit: 784 x 786 km, 85.0° (Epoch: 24 May)

Event Time Altitude Azimuth Distance (km) Brightness Sun altitude
Exits shadow 02:28:57 31° 155° (SSE) 1,340 4.8 -19.0°
Maximum altitude 02:31:17 58° 90° (E) 913 4.1 -19.4°
Drops below altitude 10° 02:36:27 10° 12° (NNE) 2,352 6.8 -20.2°
Sets 02:38:51 0° 9° (N) 3,284 7.7 -20.6°
